Location: Be?chatów
(51.3665°N, 19.3745°E)
Time: 07:59:24
(UTC+00:00)

Cosmos 1766 - Pass Details

Date: 19 May 2025
Orbit: 443 x 457 km, 82.5° (Epoch: 16 June)

Event Time Altitude Azimuth Distance (km) Brightness Sun altitude
Rises 21:27:12 0° 351° (N) 2,465 8.4 -16.9°
Reaches altitude 10° 21:29:17 10° 353° (N) 1,585 6.9 -17.0°
Maximum altitude 21:32:44 73° 78° (ENE) 472 2.9 -17.2°
Enters shadow 21:33:34 47° 149° (SSE) 599 3.0 -17.2°
